Wednesday, October 22, 2014
23:12 UTC
  |  Log In   |  Register Free
Airport Search:

Meyers-Diver'S Airport
(3TE)

Meyers-Diver'S Airport Diagram
No Airport Diagram Available

FAA data valid effective September 18, 2014 - November 13, 2014 (unless otherwise noted).

 
 
 
 
 
 
 
 
 
 
 
 
 
 

Current Aviation Weather for Meyers-Diver'S Airport (3TE)

METAR data is unavailable for 3TE. The nearest METAR location is at KADG (11.3 nm SW from 3TE).

The most recent METAR observation for KADG was updated at: 2309
METAR Summary (Translated METAR)
KADG
222253Z AUTO 35007KT 10SM OVC033 09/04 A3029 RMK AO2 SLP265 T00940044
(11.3 nm SW from 3TE)
KARB
222253Z 35007KT CLR 10/03 A3028 RMK AO2 SLP258 T01000033 $
(14.7 nm NE from 3TE)
TAF
No TAF information found within 50 nm of KADG
  Airport Weather Conditions for 3TE

Current weather conditions are
not available for 3TE


The nearest NOAA weather station
is at ADG, (11.3 nm SW from 3TE)
  
 Current Weather at ADG
51° F
Partly Cloudy
North winds at 3.5 mph
ADG NOAA Radar

Pressure: 30.29 in
Humidity: 66%
Wind: North at 3.5 MPH (3 KT)
Dew Point: 39.9°F
Visibility: 10.00 mi


Airport Weather Forecast for 3TE

Translated METAR and TAF for KADG
Translated METAR for KADG (2307 UTC 22 October 2014)
found at http://aviationweather.gov/adds/metars/
 
METAR text: KADG 222253Z AUTO 35007KT 10SM OVC033 09/04 A3029 RMK AO2 SLP265 T00940044
Conditions at: KADG (ADRIAN , MI, US) observed 2253 UTC 22 October 2014
Temperature: 9.4°C (49°F)
Dewpoint: 4.4°C (40°F) [RH = 71%]
Pressure (altimeter): 30.29 inches Hg (1025.8 mb)
[Sea-level pressure: 1026.5 mb]
Winds: from the N (350 degrees) at 8 MPH (7 knots; 3.6 m/s)
Visibility: 10 or more miles (16+ km)
Ceiling: 3300 feet AGL
Clouds: overcast cloud deck at 3300 feet AGL
Weather: automated observation with no human augmentation;
there may or may not be significant weather present at this time
Translated TAF for KADG

There is no translated TAF available for this airport

Find All Airport Services Find A Hotel Find A Rental Car Find A Golf Course Find A Restaurant $100 Hamburger



FBO's on the Field
FBO Company Facility Photos Services Transportation Aviation Fuel Prices: Prices include tax
Catering Weather Repair Courtesy Rental Type 100LL JetA JetA+ MOGAS 8087
 
Village of Boyceville

This FBO has not yet been rated
FS:Independent
Last Updated: Oct-03
Login to update fuel prices
SS:
Contact Village of BoycevilleMore FBO Information
 
Add another FBO Facility Photos Catering Weather Repair Courtesy Rental Type 100LL JetA JetA+ MOGAS 8087
Services Transportation Aviation Fuel Prices: Prices include tax


model-print
model-print
model-print
model-print